When you browse on this site, cookies collect data to enhance your experience and personalize the content and advertising you see.
Visit our Privacy Policy to learn more. By continuing to use the site, you agree to this use of cookies and data.
  • In Slovakia
  • List of Countries
  • For 7 days
  • Water Temperature
  • Satellite Maps
  • Weather Map
  • Weather Widgets
  • user-avatar
    Login

    Hourly Weather Lezhe

    Today, 19 February, Tuesday

    Time Temperature Precipitation Wind Pressure Humidity
    00:00 +8°C° 0 mm 1 mps 742 mmHg 66%
    01:00 +8°C° 0 mm 1 mps 742 mmHg 65%
    02:00 +8°C° 0 mm 1 mps 742 mmHg 65%
    03:00 +8°C° 0 mm 1 mps 742 mmHg 66%
    04:00 +7°C° 0 mm 1 mps 742 mmHg 66%
    05:00 +7°C° 0 mm 1 mps 742 mmHg 66%
    06:00 +7°C° 0 mm 1 mps 742 mmHg 66%
    07:00 +7°C° 0 mm 1 mps 742 mmHg 67%
    08:00 +9°C° 0 mm 1 mps 742 mmHg 61%
    09:00 +11°C° 0 mm 1 mps 742 mmHg 56%
    10:00 +13°C° 0 mm 1 mps 742 mmHg 51%
    11:00 +13°C° 0 mm 1 mps 741 mmHg 50%
    12:00 +14°C° 0 mm 1 mps 741 mmHg 49%
    13:00 +14°C° 0 mm 2 mps 741 mmHg 49%
    14:00 +14°C° 0 mm 1 mps 741 mmHg 52%
    15:00 +14°C° 0 mm 1 mps 741 mmHg 55%
    16:00 +13°C° 0 mm 1 mps 741 mmHg 58%
    17:00 +12°C° 0 mm 1 mps 741 mmHg 65%
    18:00 +10°C° 0 mm 1 mps 741 mmHg 72%
    19:00 +8°C° 0 mm 0 mps 741 mmHg 79%
    20:00 +8°C° 0 mm 0 mps 741 mmHg 80%
    21:00 +8°C° 0 mm 1 mps 741 mmHg 81%
    22:00 +8°C° 0 mm 1 mps 741 mmHg 82%
    23:00 +8°C° 0 mm 1 mps 741 mmHg 82%

    Tomorrow, 20 February, Wednesday

    Time Temperature Precipitation Wind Pressure Humidity
    00:00 +7°C° 0 mm 1 mps 742 mmHg 82%
    01:00 +7°C° 0 mm 1 mps 742 mmHg 82%
    02:00 +7°C° 0 mm 1 mps 741 mmHg 81%
    03:00 +7°C° 0 mm 1 mps 741 mmHg 80%
    04:00 +6°C° 0 mm 1 mps 741 mmHg 79%
    05:00 +6°C° 0 mm 1 mps 741 mmHg 78%
    06:00 +6°C° 0 mm 1 mps 741 mmHg 76%
    07:00 +6°C° 0 mm 1 mps 741 mmHg 74%
    08:00 +8°C° 0 mm 1 mps 742 mmHg 67%
    09:00 +10°C° 0 mm 1 mps 742 mmHg 60%
    10:00 +11°C° 0 mm 0 mps 742 mmHg 53%
    11:00 +13°C° 0 mm 1 mps 742 mmHg 52%
    12:00 +13°C° 0 mm 1 mps 742 mmHg 51%
    13:00 +14°C° 0 mm 2 mps 742 mmHg 50%
    14:00 +14°C° 0 mm 2 mps 742 mmHg 53%
    15:00 +13°C° 0 mm 2 mps 741 mmHg 56%
    16:00 +13°C° 0 mm 2 mps 741 mmHg 59%
    17:00 +12°C° 0 mm 2 mps 742 mmHg 65%
    18:00 +11°C° 0 mm 1 mps 742 mmHg 72%
    19:00 +9°C° 0 mm 1 mps 743 mmHg 79%
    20:00 +9°C° 0 mm 1 mps 743 mmHg 76%
    21:00 +9°C° 0 mm 1 mps 743 mmHg 72%
    22:00 +9°C° 0 mm 1 mps 743 mmHg 69%
    23:00 +8°C° 0 mm 1 mps 743 mmHg 68%

    Day after tomorrow, 21 February, Thursday

    Time Temperature Precipitation Wind Pressure Humidity
    00:00 +8°C° 0 mm 1 mps 744 mmHg 66%
    01:00 +7°C° 0 mm 2 mps 744 mmHg 64%
    02:00 +7°C° 0 mm 2 mps 744 mmHg 65%
    03:00 +6°C° 0 mm 2 mps 744 mmHg 66%
    04:00 +6°C° 0 mm 2 mps 744 mmHg 67%
    05:00 +6°C° 0 mm 2 mps 744 mmHg 69%
    06:00 +6°C° 0 mm 2 mps 744 mmHg 70%
    07:00 +6°C° 0 mm 2 mps 744 mmHg 72%
    08:00 +8°C° 0 mm 2 mps 744 mmHg 65%
    09:00 +10°C° 0 mm 2 mps 745 mmHg 59%
    10:00 +13°C° 0 mm 2 mps 745 mmHg 52%
    11:00 +14°C° 0 mm 2 mps 745 mmHg 48%
    12:00 +15°C° 0 mm 2 mps 744 mmHg 45%
    13:00 +16°C° 0 mm 2 mps 744 mmHg 41%
    14:00 +16°C° 0 mm 2 mps 744 mmHg 44%
    15:00 +15°C° 0 mm 2 mps 744 mmHg 46%
    16:00 +14°C° 0 mm 3 mps 744 mmHg 48%
    17:00 +13°C° 0 mm 2 mps 744 mmHg 54%
    18:00 +12°C° 0 mm 2 mps 744 mmHg 61%
    19:00 +11°C° 0 mm 1 mps 744 mmHg 67%
    20:00 +10°C° 0 mm 1 mps 744 mmHg 66%
    21:00 +10°C° 0 mm 1 mps 744 mmHg 65%
    22:00 +10°C° 0 mm 1 mps 744 mmHg 64%
    23:00 +9°C° 0 mm 1 mps 744 mmHg 64%

    22 February, Friday

    Time Temperature Precipitation Wind Pressure Humidity
    00:00 +9°C° 0 mm 1 mps 744 mmHg 63%
    01:00 +9°C° 0 mm 1 mps 744 mmHg 63%
    02:00 +9°C° 0 mm 1 mps 744 mmHg 63%
    03:00 +9°C° 0 mm 1 mps 743 mmHg 63%
    04:00 +8°C° 0 mm 1 mps 743 mmHg 64%
    05:00 +8°C° 0 mm 1 mps 742 mmHg 64%
    06:00 +8°C° 0 mm 1 mps 742 mmHg 64%
    07:00 +8°C° 0 mm 1 mps 742 mmHg 65%
    08:00 +10°C° 0 mm 1 mps 742 mmHg 60%
    09:00 +11°C° 0 mm 1 mps 741 mmHg 55%
    10:00 +13°C° 0 mm 1 mps 741 mmHg 51%
    11:00 +14°C° 0 mm 1 mps 740 mmHg 50%
    12:00 +14°C° 0 mm 1 mps 740 mmHg 49%
    13:00 +15°C° 0 mm 2 mps 739 mmHg 48%
    14:00 +14°C° 0.1 mm 2 mps 739 mmHg 49%
    15:00 +14°C° 0.1 mm 2 mps 739 mmHg 50%
    16:00 +14°C° 0.1 mm 2 mps 738 mmHg 51%
    17:00 +13°C° 0 mm 2 mps 738 mmHg 55%
    18:00 +12°C° 0 mm 2 mps 738 mmHg 59%
    19:00 +10°C° 0 mm 3 mps 738 mmHg 63%
    20:00 +9°C° 0 mm 3 mps 738 mmHg 64%
    21:00 +9°C° 0 mm 3 mps 739 mmHg 65%
    22:00 +8°C° 0 mm 3 mps 739 mmHg 67%
    23:00 +8°C° 0 mm 3 mps 739 mmHg 67%

    23 February, Saturday

    Time Temperature Precipitation Wind Pressure Humidity
    00:00 +6°C° 0 mm 4 mps 739 mmHg 67%
    01:00 +6°C° 0 mm 5 mps 739 mmHg 68%
    02:00 +5°C° 0 mm 5 mps 740 mmHg 62%
    03:00 +2°C° 0 mm 6 mps 740 mmHg 57%
    04:00 0°C° 0 mm 7 mps 740 mmHg 52%
    05:00 0°C° 0 mm 7 mps 740 mmHg 50%
    06:00 -1°C° 0 mm 7 mps 740 mmHg 49%
    07:00 -2°C° 0 mm 8 mps 741 mmHg 48%
    08:00 -1°C° 0 mm 8 mps 741 mmHg 45%
    09:00 0°C° 0 mm 9 mps 741 mmHg 42%
    10:00 +1°C° 0 mm 10 mps 742 mmHg 39%
    11:00 +1°C° 0 mm 10 mps 742 mmHg 37%
    12:00 +2°C° 0 mm 10 mps 742 mmHg 36%
    13:00 +2°C° 0 mm 9 mps 742 mmHg 35%
    14:00 +2°C° 0 mm 9 mps 742 mmHg 36%
    15:00 +1°C° 0 mm 9 mps 742 mmHg 37%
    16:00 0°C° 0 mm 9 mps 742 mmHg 38%
    17:00 -1°C° 0 mm 8 mps 742 mmHg 39%
    18:00 -1°C° 0 mm 7 mps 743 mmHg 41%
    19:00 -2°C° 0 mm 6 mps 743 mmHg 42%
    20:00 -3°C° 0 mm 6 mps 743 mmHg 40%
    21:00 -3°C° 0 mm 6 mps 744 mmHg 38%
    22:00 -2°C° 0 mm 5 mps 744 mmHg 36%
    23:00 -2°C° 0 mm 5 mps 744 mmHg 36%

    24 February, Sunday

    Time Temperature Precipitation Wind Pressure Humidity
    00:00 -4°C° 0 mm 5 mps 744 mmHg 37%
    01:00 -4°C° 0 mm 5 mps 744 mmHg 38%
    02:00 -4°C° 0 mm 5 mps 743 mmHg 39%
    03:00 -3°C° 0 mm 4 mps 743 mmHg 40%
    04:00 -3°C° 0 mm 4 mps 743 mmHg 41%
    05:00 -3°C° 0 mm 4 mps 743 mmHg 41%
    06:00 -4°C° 0 mm 4 mps 743 mmHg 42%
    07:00 -4°C° 0 mm 4 mps 743 mmHg 42%
    08:00 -2°C° 0 mm 5 mps 743 mmHg 38%
    09:00 -1°C° 0 mm 5 mps 743 mmHg 33%
    10:00 -1°C° 0 mm 6 mps 743 mmHg 29%
    11:00 +1°C° 0 mm 6 mps 743 mmHg 28%
    12:00 +2°C° 0 mm 6 mps 743 mmHg 27%
    13:00 +2°C° 0 mm 7 mps 742 mmHg 27%
    14:00 +2°C° 0 mm 7 mps 742 mmHg 28%
    15:00 +2°C° 0 mm 7 mps 742 mmHg 30%
    16:00 0°C° 0 mm 7 mps 742 mmHg 32%
    17:00 -1°C° 0 mm 6 mps 743 mmHg 36%
    18:00 -2°C° 0 mm 6 mps 743 mmHg 40%
    19:00 -2°C° 0 mm 5 mps 743 mmHg 44%
    20:00 -2°C° 0 mm 5 mps 743 mmHg 45%
    21:00 -2°C° 0 mm 5 mps 744 mmHg 46%
    22:00 -4°C° 0 mm 5 mps 744 mmHg 47%
    23:00 -4°C° 0 mm 5 mps 743 mmHg 46%
    Show more